Regional Weather Roundup
Issued by NWS

Home | Current Version | Previous Version | Text Only | Print | Product List | Glossary Off
Versions: 1 2 3 4 5 6 7 8 9 10 11 12 13 14 15 16 17 18 19 20 21 22 23 24 25 26 27 28 29 30 31 32 33 34 35 36 37 38 39 40 41 42 43 44 45 46 47 48 49 50

000
ASUS43 KIND 171259
RWRIN

WEATHER ROUNDUP FOR INDIANA
NATIONAL WEATHER SERVICE INDIANAPOLIS IN
800 AM EST SUN DEC 17 2017

NOTE: "FAIR" INDICATES FEW OR NO CLOUDS BELOW 12,000 FEET WITH NO
SIGNIFICANT WEATHER AND/OR OBSTRUCTIONS TO VISIBILITY.

* - STATION DOES NOT REPORT WEATHER SUCH AS PRECIPITATION OR FOG.

+ - STATION NOT QUALITY CONTROLLED BY THE NATIONAL WEATHER SERVICE.
    USE DATA WITH CAUTION...ESPECIALLY DEWPOINT AND RELATIVE
    HUMIDITY OBSERVATIONS.

INZ001>003-010>013-019-020-171400-
NORTHWEST INDIANA

CITY           SKY/WX    TMP DP  RH WIND       PRES   REMARKS
GARY /AIRPORT/ MOCLDY    32  28  86 CALM      30.08R
MONTICELLO +   CLOUDY    36  29  75 S6        30.10R WCI  31

$$

LMZ046-743>745-171400-
SOUTHERN LAKE MICHIGAN

STATION/POSITION TIME  TEMP    WIND        PRES    WAVE
                       AIR SEA DIR/SP/G            HT
                 (UTC) (F)     (DEG/KT/KT) (MB)    (FT)
BURNS HARBOR     1240   36     160/  4/  7 1018.3F
MICHIGAN CITY    1230   32     110/  6/  7   N/A

$$

INZ004-005-014>016-021>024-171400-
NORTH CENTRAL INDIANA

CITY           SKY/WX    TMP DP  RH WIND       PRES   REMARKS
GOSHEN         CLOUDY    28  24  85 E8        30.09F FOG     WCI  20
PERU/GRISSOM   CLOUDY    35  31  85 S9        30.11R WCI  28
SOUTH BEND     CLOUDY    27  26  96 E5        30.09S WCI  22

$$

INZ006>009-017-018-025>027-171400-
NORTHEAST INDIANA

CITY           SKY/WX    TMP DP  RH WIND       PRES   REMARKS
FORT WAYNE     CLOUDY    26  25  96 E5        30.15R FOG     WCI  20

$$

INZ028-029-035-036-043>045-051>053-171400-
WEST CENTRAL INDIANA

CITY           SKY/WX    TMP DP  RH WIND       PRES   REMARKS
LAFAYETTE      CLOUDY    37  30  75 S3        30.09F
TERRE HAUTE    CLOUDY    40  30  67 S5        30.12F WCI  37

$$

INZ030>032-037>040-046>048-054>057-064-065-171400-
CENTRAL INDIANA

CITY           SKY/WX    TMP DP  RH WIND       PRES   REMARKS
COLUMBUS       MOCLDY    37  28  70 S5        30.18R WCI  34
INDIANAPOLIS   CLOUDY    38  30  73 S8        30.14R WCI  32
-EAGLE CREEK   CLOUDY    40  29  64 S5        30.13R WCI  37
KOKOMO +       CLOUDY    35  29  78 S8        30.13R WCI  29
MT COMFORT *+  CLOUDY    34  32  93 S7        30.14R WCI  28
SHELBYVILLE    CLOUDY    39  28  64 S12       30.16R WCI  32

$$

INZ033-034-041-042-049-050-058-059-171400-
EAST CENTRAL INDIANA

CITY           SKY/WX    TMP DP  RH WIND       PRES   REMARKS
MUNCIE         CLOUDY    39  29  67 SW9       30.14R WCI  33
RICHMOND +     CLOUDY    32  30  93 S6        30.15S WCI  26

$$

INZ060-061-067>069-081>083-085>088-171400-
SOUTHWEST INDIANA

CITY           SKY/WX    TMP DP  RH WIND       PRES   REMARKS
EVANSVILLE     CLOUDY    43  32  65 SE3       30.16F
HUNTINGBURG +  CLOUDY    41  32  70 SE6       30.18F

$$

INZ062-063-066-070>080-084-089>092-171400-
SOUTH CENTRAL AND SOUTHEAST INDIANA

CITY           SKY/WX    TMP DP  RH WIND       PRES   REMARKS
BLOOMINGTON    MOCLDY    42  29  59 S7        30.15R
SEYMOUR +      CLOUDY    41  30  65 S6        30.19R

$$





USA.gov is the U.S. government's official web portal to all federal, state and local government web resources and services.